Powrót do katalogu

STARLINK-36158

AktywnyŁącznośćVLEO
NORAD 67080·PAYLOAD·🇺🇸 United States

Wystrzelony Dec 14, 2025 z Vandenberg Space Force Base

Loading…

Następne Przeloty (najbliższe 24 godziny)

TLE

ŚwieżeSource: CelesTrak SupGP

Epoka: Sep 15, 2026, 02:32 UTC

1 67080C 25298F   26258.10604167 -.00041417  00000+0 -34698-2 0  2583
2 67080  69.9993 256.6960 0004001 266.8114 123.6190 14.98361813    12

Śledź STARLINK-36158 w czasie rzeczywistym z AllMySat

Download on the App Store